When you browse on this site, cookies collect data to enhance your experience and personalize the content and advertising you see.
Visit our Privacy Policy to learn more. By continuing to use the site, you agree to this use of cookies and data.
  • Em Portugal
  • Lista de países
  • Para 7 dias
  • Temperatura da água
  • Mapa do tempo
  • Widgets de tempo
  • user-avatar
    Iniciar Sessão

    Previsão horária em Brugia

    Hoje, 19 Novembro, Terça-feira

    Tempo Temperatura Precipitação Vento Pressão Humidade
    00:00 +4°C° 0 mm 6 m/s 760 mmHg 77%
    01:00 +4°C° 0.2 mm 6 m/s 760 mmHg 79%
    02:00 +4°C° 0.2 mm 6 m/s 760 mmHg 80%
    03:00 +5°C° 0.2 mm 5 m/s 760 mmHg 81%
    04:00 +3°C° 0.1 mm 5 m/s 760 mmHg 83%
    05:00 +3°C° 0.1 mm 5 m/s 761 mmHg 84%
    06:00 +2°C° 0.1 mm 5 m/s 761 mmHg 86%
    07:00 +4°C° 0.1 mm 4 m/s 761 mmHg 83%
    08:00 +4°C° 0.1 mm 4 m/s 761 mmHg 80%
    09:00 +5°C° 0.1 mm 4 m/s 761 mmHg 77%
    10:00 +5°C° 0 mm 3 m/s 762 mmHg 73%
    11:00 +7°C° 0 mm 3 m/s 762 mmHg 68%
    12:00 +8°C° 0 mm 3 m/s 762 mmHg 63%
    13:00 +7°C° 0 mm 3 m/s 762 mmHg 65%
    14:00 +7°C° 0 mm 3 m/s 762 mmHg 67%
    15:00 +6°C° 0 mm 2 m/s 762 mmHg 69%
    16:00 +5°C° 0 mm 2 m/s 762 mmHg 72%
    17:00 +4°C° 0 mm 2 m/s 762 mmHg 75%
    18:00 +3°C° 0 mm 2 m/s 762 mmHg 78%
    19:00 +3°C° 0 mm 2 m/s 762 mmHg 80%
    20:00 +2°C° 0 mm 3 m/s 763 mmHg 82%
    21:00 +1°C° 0 mm 3 m/s 763 mmHg 84%
    22:00 +1°C° 0 mm 3 m/s 763 mmHg 84%
    23:00 +1°C° 0 mm 3 m/s 763 mmHg 85%

    Amanhã, 20 Novembro, Quarta-feira

    Tempo Temperatura Precipitação Vento Pressão Humidade
    00:00 +1°C° 0 mm 3 m/s 763 mmHg 86%
    01:00 0°C° 0 mm 3 m/s 763 mmHg 86%
    02:00 0°C° 0 mm 3 m/s 762 mmHg 87%
    03:00 0°C° 0 mm 3 m/s 762 mmHg 87%
    04:00 0°C° 0 mm 3 m/s 762 mmHg 88%
    05:00 -1°C° 0 mm 3 m/s 762 mmHg 88%
    06:00 -1°C° 0 mm 3 m/s 762 mmHg 89%
    07:00 -1°C° 0 mm 4 m/s 762 mmHg 87%
    08:00 0°C° 0 mm 4 m/s 762 mmHg 85%
    09:00 0°C° 0 mm 4 m/s 762 mmHg 82%
    10:00 +1°C° 0 mm 4 m/s 761 mmHg 78%
    11:00 +4°C° 0 mm 4 m/s 761 mmHg 74%
    12:00 +5°C° 0 mm 4 m/s 761 mmHg 70%
    13:00 +4°C° 0 mm 4 m/s 760 mmHg 72%
    14:00 +4°C° 0 mm 4 m/s 760 mmHg 74%
    15:00 +4°C° 0 mm 4 m/s 759 mmHg 77%
    16:00 +2°C° 0 mm 5 m/s 759 mmHg 81%
    17:00 +2°C° 0 mm 5 m/s 759 mmHg 85%
    18:00 +1°C° 0 mm 6 m/s 758 mmHg 89%
    19:00 +1°C° 0 mm 6 m/s 758 mmHg 89%
    20:00 -1°C° 0 mm 6 m/s 758 mmHg 90%
    21:00 -1°C° 0 mm 6 m/s 758 mmHg 90%
    22:00 0°C° 0 mm 5 m/s 758 mmHg 90%
    23:00 0°C° 0 mm 5 m/s 758 mmHg 90%

    Depois de amanhã, 21 Novembro, Quinta-feira

    Tempo Temperatura Precipitação Vento Pressão Humidade
    00:00 -1°C° 0 mm 5 m/s 757 mmHg 90%
    01:00 -1°C° 0 mm 5 m/s 757 mmHg 90%
    02:00 -1°C° 0 mm 5 m/s 756 mmHg 91%
    03:00 -1°C° 0 mm 4 m/s 756 mmHg 91%
    04:00 -1°C° 0 mm 5 m/s 756 mmHg 91%
    05:00 -1°C° 0 mm 5 m/s 756 mmHg 91%
    06:00 -1°C° 0 mm 5 m/s 756 mmHg 91%
    07:00 -1°C° 0 mm 5 m/s 755 mmHg 89%
    08:00 0°C° 0 mm 5 m/s 755 mmHg 87%
    09:00 +1°C° 0 mm 5 m/s 755 mmHg 84%
    10:00 +2°C° 0 mm 5 m/s 755 mmHg 83%
    11:00 +3°C° 0 mm 5 m/s 755 mmHg 81%
    12:00 +6°C° 0 mm 5 m/s 755 mmHg 80%
    13:00 +6°C° 0 mm 5 m/s 754 mmHg 80%
    14:00 +6°C° 0 mm 5 m/s 754 mmHg 81%
    15:00 +6°C° 0 mm 5 m/s 753 mmHg 81%
    16:00 +5°C° 0 mm 5 m/s 753 mmHg 84%
    17:00 +4°C° 0 mm 6 m/s 753 mmHg 87%
    18:00 +3°C° 0 mm 6 m/s 754 mmHg 89%
    19:00 +4°C° 0 mm 6 m/s 753 mmHg 88%
    20:00 +4°C° 0 mm 6 m/s 753 mmHg 86%
    21:00 +5°C° 0 mm 6 m/s 753 mmHg 85%
    22:00 +5°C° 0 mm 6 m/s 753 mmHg 85%
    23:00 +5°C° 0 mm 6 m/s 753 mmHg 86%

    22 Novembro, Sexta-feira

    Tempo Temperatura Precipitação Vento Pressão Humidade
    00:00 +5°C° 0 mm 7 m/s 753 mmHg 87%
    01:00 +4°C° 0 mm 6 m/s 753 mmHg 88%
    02:00 +4°C° 0 mm 6 m/s 753 mmHg 89%
    03:00 +4°C° 0 mm 6 m/s 753 mmHg 90%
    04:00 +4°C° 0 mm 6 m/s 753 mmHg 91%
    05:00 +3°C° 0 mm 6 m/s 754 mmHg 92%
    06:00 +3°C° 0 mm 6 m/s 754 mmHg 93%
    07:00 +3°C° 0 mm 5 m/s 754 mmHg 91%
    08:00 +5°C° 0 mm 5 m/s 754 mmHg 90%
    09:00 +5°C° 0 mm 5 m/s 754 mmHg 88%
    10:00 +6°C° 0 mm 5 m/s 754 mmHg 85%
    11:00 +7°C° 0 mm 5 m/s 754 mmHg 81%
    12:00 +8°C° 0 mm 5 m/s 753 mmHg 78%
    13:00 +8°C° 0 mm 5 m/s 753 mmHg 79%
    14:00 +8°C° 0 mm 5 m/s 753 mmHg 80%
    15:00 +8°C° 0 mm 5 m/s 752 mmHg 80%
    16:00 +7°C° 0 mm 5 m/s 752 mmHg 83%
    17:00 +5°C° 0 mm 6 m/s 752 mmHg 86%
    18:00 +5°C° 0 mm 6 m/s 752 mmHg 89%
    19:00 +5°C° 0 mm 6 m/s 751 mmHg 86%
    20:00 +5°C° 0 mm 6 m/s 751 mmHg 82%
    21:00 +5°C° 0 mm 7 m/s 751 mmHg 79%
    22:00 +5°C° 0 mm 7 m/s 751 mmHg 74%
    23:00 +7°C° 0 mm 6 m/s 750 mmHg 70%

    23 Novembro, Sábado

    Tempo Temperatura Precipitação Vento Pressão Humidade
    00:00 +8°C° 0 mm 6 m/s 750 mmHg 66%
    01:00 +7°C° 0.1 mm 6 m/s 750 mmHg 67%
    02:00 +6°C° 0.1 mm 7 m/s 749 mmHg 68%
    03:00 +5°C° 0.1 mm 7 m/s 749 mmHg 69%
    04:00 +6°C° 0 mm 7 m/s 749 mmHg 67%
    05:00 +6°C° 0 mm 7 m/s 749 mmHg 66%
    06:00 +6°C° 0 mm 7 m/s 749 mmHg 64%
    07:00 +6°C° 0 mm 7 m/s 749 mmHg 66%
    08:00 +7°C° 0 mm 6 m/s 749 mmHg 67%
    09:00 +7°C° 0 mm 6 m/s 749 mmHg 69%
    10:00 +8°C° 0 mm 6 m/s 749 mmHg 67%
    11:00 +9°C° 0 mm 6 m/s 750 mmHg 66%
    12:00 +9°C° 0 mm 6 m/s 750 mmHg 64%
    13:00 +9°C° 0 mm 6 m/s 750 mmHg 66%
    14:00 +9°C° 0 mm 5 m/s 750 mmHg 67%
    15:00 +10°C° 0 mm 4 m/s 751 mmHg 69%
    16:00 +8°C° 0 mm 4 m/s 751 mmHg 71%
    17:00 +7°C° 0 mm 5 m/s 752 mmHg 72%
    18:00 +7°C° 0 mm 5 m/s 752 mmHg 74%
    19:00 +6°C° 0 mm 4 m/s 753 mmHg 77%
    20:00 +7°C° 0 mm 3 m/s 753 mmHg 79%
    21:00 +5°C° 0 mm 3 m/s 754 mmHg 81%
    22:00 +5°C° 0 mm 3 m/s 754 mmHg 83%
    23:00 +5°C° 0 mm 3 m/s 755 mmHg 85%

    24 Novembro, Domingo

    Tempo Temperatura Precipitação Vento Pressão Humidade
    00:00 +4°C° 0 mm 3 m/s 755 mmHg 86%
    01:00 +4°C° 0 mm 3 m/s 755 mmHg 88%
    02:00 +4°C° 0 mm 3 m/s 756 mmHg 90%
    03:00 +4°C° 0 mm 3 m/s 756 mmHg 92%
    04:00 +4°C° 0 mm 3 m/s 756 mmHg 92%
    05:00 +4°C° 0 mm 3 m/s 756 mmHg 93%
    06:00 +4°C° 0 mm 3 m/s 757 mmHg 94%
    07:00 +5°C° 0 mm 4 m/s 757 mmHg 93%
    08:00 +5°C° 0 mm 4 m/s 757 mmHg 91%
    09:00 +6°C° 0 mm 5 m/s 758 mmHg 90%
    10:00 +7°C° 0 mm 5 m/s 758 mmHg 87%
    11:00 +8°C° 0 mm 5 m/s 758 mmHg 83%
    12:00 +9°C° 0 mm 6 m/s 758 mmHg 79%
    13:00 +9°C° 0 mm 6 m/s 758 mmHg 81%
    14:00 +9°C° 0 mm 6 m/s 758 mmHg 82%
    15:00 +9°C° 0 mm 6 m/s 758 mmHg 84%
    16:00 +9°C° 0 mm 6 m/s 758 mmHg 85%
    17:00 +9°C° 0 mm 6 m/s 758 mmHg 87%
    18:00 +9°C° 0 mm 6 m/s 758 mmHg 89%
    19:00 +9°C° 0 mm 6 m/s 758 mmHg 89%
    20:00 +9°C° 0 mm 6 m/s 758 mmHg 90%
    21:00 +8°C° 0 mm 6 m/s 757 mmHg 90%
    22:00 +8°C° 0 mm 6 m/s 757 mmHg 89%
    23:00 +8°C° 0 mm 7 m/s 757 mmHg 88%
    Mostrar mais